Log Lane Village, CO

1:48 AM MST on February 14, 2016 (GMT -0700)
Fort Morgan

Weather History for KFMM - November, 2012

Change the Weather History Date:

Wednesday, November 14, 2012

  Actual Average (KAKO) Record (KAKO)
Temperature  
Mean Temperature 35 °F 38 °F  
Max Temperature 47 °F 51 °F 77 °F (1990)
Min Temperature 23 °F 26 °F -10 °F (1940)
Degree Days  
Heating Degree Days 30    
Month to date heating degree days  
Cooling Degree Days 0    
Month to date cooling degree days  
Moisture  
Dew Point 27 °F    
Average Humidity 75    
Maximum Humidity 93    
Minimum Humidity 48    
Precipitation  
Precipitation 0.00 in 0.02 in 0.38 in (1993)
Month to date precipitation 0.28  
Year to date precipitation 16.04  
Sea Level Pressure  
Sea Level Pressure 30.18 in    
Wind  
Wind Speed 4 mph ()    
Max Wind Speed 12 mph    
Max Gust Speed 18 mph    
Visibility 10.0 miles    
Events      
T = Trace of Precipitation, MM = Missing Value Source: Averaged Metar Reports

Daily Weather History Graph

Daily Weather History Graph

Search for Another Location

Airport or City:

Trip Planner

Search our weather history database for the weather conditions in past years. The results will help you decide how hot, cold, wet, or windy it might be!

Date:

Astronomy

Nov. 14, 2012 Rise Set
Actual Time 6:40 AM MST 4:38 PM MST
Civil Twilight 6:11 AM MST 5:07 PM MST
Nautical Twilight 5:38 AM MST 5:40 PM MST
Astronomical Twilight 5:06 AM MST 6:12 PM MST
Moon 7:32 AM MST 5:29 PM MST
Length of Visible Light 10h 56m
Length of Day
9h 57m
New Moon, 1% of the Moon is Illuminated
Nov 14
New Moon
Nov 20
First Quarter
Nov 28
Full
Dec 6
Last Quarter
Dec 13
New

Hourly Weather History & Observations

Time (MST) Temp. Windchill Dew Point Humidity Pressure Visibility Wind Dir Wind Speed Gust Speed Precip Events Conditions
12:15 AM 28.2 °F 22.0 °F 24.1 °F 84% 30.28 in 10.0 mi West 5.8 mph - N/A   Clear
12:35 AM 27.9 °F 21.5 °F 23.7 °F 84% 30.26 in 10.0 mi West 5.8 mph - N/A   Clear
12:55 AM 26.6 °F 19.1 °F 23.2 °F 87% 30.26 in 10.0 mi West 6.9 mph - N/A   Clear
1:15 AM 25.7 °F 18.0 °F 23.0 °F 89% 30.26 in 10.0 mi West 6.9 mph - N/A   Clear
1:35 AM 26.6 °F 19.1 °F 23.5 °F 88% 30.26 in 10.0 mi West 6.9 mph - N/A   Clear
1:55 AM 26.6 °F 20.0 °F 23.7 °F 89% 30.26 in 10.0 mi WSW 5.8 mph - N/A   Clear
2:15 AM 28.2 °F 22.0 °F 24.6 °F 86% 30.26 in 10.0 mi West 5.8 mph - N/A   Clear
2:35 AM 27.3 °F 22.0 °F 23.7 °F 86% 30.24 in 10.0 mi West 4.6 mph - N/A   Clear
2:55 AM 27.1 °F 23.2 °F 23.7 °F 87% 30.24 in 10.0 mi West 3.5 mph - N/A   Clear
3:15 AM 27.5 °F - 24.1 °F 87% 30.23 in 10.0 mi Calm Calm - N/A   Clear
3:35 AM 28.4 °F - 24.1 °F 84% 30.22 in 10.0 mi Calm Calm - N/A   Clear
3:55 AM 23.0 °F - 21.0 °F 92% 30.22 in 10.0 mi Calm Calm - N/A   Clear
4:15 AM 25.7 °F - 23.7 °F 92% 30.22 in 10.0 mi Calm Calm - N/A   Clear
4:35 AM 24.8 °F - 22.6 °F 91% 30.22 in 10.0 mi Calm Calm - N/A   Clear
4:55 AM 24.1 °F 18.2 °F 22.1 °F 92% 30.22 in 10.0 mi NE 4.6 mph - N/A   Clear
5:15 AM 24.6 °F 18.8 °F 22.5 °F 91% 30.22 in 10.0 mi North 4.6 mph - N/A   Clear
5:35 AM 25.9 °F - 23.0 °F 89% 30.22 in 10.0 mi Calm Calm - N/A   Clear
5:55 AM 26.2 °F 22.1 °F 22.6 °F 86% 30.22 in 10.0 mi NE 3.5 mph - N/A   Clear
6:15 AM 24.3 °F 19.9 °F 21.2 °F 88% 30.22 in 10.0 mi NE 3.5 mph - N/A   Clear
6:35 AM 24.6 °F - 22.8 °F 93% 30.22 in 10.0 mi Calm Calm - N/A   Clear
6:55 AM 28.2 °F 22.0 °F 25.0 °F 88% 30.22 in 10.0 mi NNE 5.8 mph - N/A   Clear
7:15 AM 30.2 °F 26.7 °F 25.9 °F 84% 30.22 in 10.0 mi ENE 3.5 mph - N/A   Clear
7:35 AM 29.7 °F - 25.9 °F 86% 30.23 in 10.0 mi Calm Calm - N/A   Clear
7:55 AM 30.6 °F - 27.1 °F 87% 30.24 in 10.0 mi Calm Calm - N/A   Clear
8:15 AM 31.5 °F - 27.7 °F 86% 30.24 in 10.0 mi Calm Calm - N/A   Clear
8:35 AM 33.4 °F 30.4 °F 27.5 °F 79% 30.24 in 10.0 mi SSE 3.5 mph - N/A   Clear
8:55 AM 35.1 °F 31.0 °F 28.8 °F 78% 30.24 in 10.0 mi South 4.6 mph - N/A   Clear
9:15 AM 36.7 °F 32.0 °F 30.0 °F 77% 30.24 in 10.0 mi SW 5.8 mph - N/A   Clear
9:35 AM 35.2 °F 29.5 °F 28.2 °F 76% 30.23 in 10.0 mi SW 6.9 mph - N/A   Clear
9:55 AM 34.0 °F 28.0 °F 28.4 °F 80% 30.22 in 10.0 mi SW 6.9 mph - N/A   Clear
10:15 AM 36.1 °F 32.3 °F 28.6 °F 74% 30.22 in 10.0 mi West 4.6 mph - N/A   Clear
10:35 AM 36.7 °F 32.0 °F 28.2 °F 71% 30.22 in 10.0 mi WSW 5.8 mph - N/A   Clear
10:55 AM 39.4 °F 34.5 °F 29.1 °F 67% 30.20 in 10.0 mi SW 6.9 mph - N/A   Clear
11:15 AM 39.9 °F 34.5 °F 29.8 °F 67% 30.18 in 10.0 mi SW 8.1 mph - N/A   Clear
11:35 AM 41.4 °F 36.2 °F 29.5 °F 63% 30.17 in 10.0 mi SW 8.1 mph - N/A   Clear
11:55 AM 41.2 °F 36.6 °F 28.6 °F 61% 30.17 in 10.0 mi SW 6.9 mph - N/A   Scattered Clouds
12:15 PM 39.6 °F 36.3 °F 28.9 °F 66% 30.16 in 10.0 mi SW 4.6 mph - N/A   Scattered Clouds
12:35 PM 39.2 °F 35.9 °F 29.7 °F 69% 30.14 in 10.0 mi SW 4.6 mph - N/A   Clear
12:55 PM 42.3 °F 40.5 °F 29.7 °F 61% 30.13 in 10.0 mi West 3.5 mph - N/A   Clear
1:15 PM 45.7 °F 43.4 °F 29.1 °F 52% 30.13 in 10.0 mi SW 4.6 mph - N/A   Clear
1:35 PM 46.0 °F 43.9 °F 28.8 °F 51% 30.12 in 10.0 mi West 4.6 mph - N/A   Clear
1:55 PM 47.5 °F - 28.4 °F 48% 30.11 in 10.0 mi West 4.6 mph - N/A   Clear
2:15 PM 47.3 °F - 28.9 °F 49% 30.11 in 10.0 mi West 3.5 mph - N/A   Clear
2:35 PM 45.9 °F 44.6 °F 30.0 °F 54% 30.11 in 10.0 mi West 3.5 mph - N/A   Clear
2:55 PM 45.5 °F 42.5 °F 30.2 °F 55% 30.11 in 10.0 mi NNW 5.8 mph - N/A   Clear
3:15 PM 45.0 °F 40.6 °F 30.9 °F 58% 30.11 in 10.0 mi North 8.1 mph - N/A   Clear
3:35 PM 43.7 °F 39.7 °F 30.6 °F 60% 30.11 in 10.0 mi North 6.9 mph - N/A   Clear
3:55 PM 41.9 °F 36.3 °F 29.7 °F 62% 30.10 in 10.0 mi North 9.2 mph - N/A   Clear
4:15 PM 41.5 °F 38.6 °F 28.0 °F 59% 30.10 in 10.0 mi North 4.6 mph - N/A   Clear
4:35 PM 38.7 °F 33.6 °F 26.4 °F 61% 30.10 in 10.0 mi NNW 6.9 mph - N/A   Clear
4:55 PM 37.4 °F 34.9 °F 26.4 °F 65% 30.09 in 10.0 mi NW 3.5 mph - N/A   Scattered Clouds
5:15 PM 37.8 °F 31.8 °F 27.1 °F 66% 30.10 in 10.0 mi North 8.1 mph - N/A   Scattered Clouds
5:35 PM 37.6 °F 31.0 °F 27.7 °F 67% 30.11 in 10.0 mi North 9.2 mph - N/A   Scattered Clouds
5:55 PM 38.8 °F - 27.9 °F 65% 30.11 in 10.0 mi Calm Calm - N/A   Mostly Cloudy
6:15 PM 37.9 °F - 28.4 °F 69% 30.12 in 10.0 mi Calm Calm - N/A   Overcast
6:35 PM 39.2 °F 32.0 °F 28.9 °F 67% 30.13 in 10.0 mi North 11.5 mph 18.4 mph N/A   Overcast
6:55 PM 38.5 °F 32.7 °F 30.2 °F 72% 30.14 in 10.0 mi North 8.1 mph - N/A   Mostly Cloudy
7:35 PM 37.6 °F 32.3 °F 31.1 °F 77% 30.14 in 10.0 mi North 6.9 mph - N/A   Overcast
7:55 PM 39.2 °F 33.6 °F 31.5 °F 74% 30.14 in 10.0 mi NE 8.1 mph - N/A   Overcast
8:15 PM 39.6 °F 34.0 °F 31.6 °F 73% 30.14 in 10.0 mi North 8.1 mph - N/A   Overcast
8:35 PM 39.6 °F 34.0 °F 31.6 °F 73% 30.14 in 10.0 mi North 8.1 mph - N/A   Mostly Cloudy
8:55 PM 38.5 °F 34.1 °F 30.9 °F 74% 30.15 in 10.0 mi NNE 5.8 mph - N/A   Scattered Clouds
9:15 PM 36.0 °F - 29.7 °F 78% 30.15 in 10.0 mi Calm Calm - N/A   Scattered Clouds
9:35 PM 35.2 °F - 30.7 °F 84% 30.16 in 10.0 mi Calm Calm - N/A   Scattered Clouds
9:55 PM 32.9 °F 28.5 °F 29.3 °F 87% 30.17 in 10.0 mi West 4.6 mph - N/A   Scattered Clouds
10:15 PM 33.8 °F 28.6 °F 29.8 °F 85% 30.16 in 10.0 mi WNW 5.8 mph - N/A   Mostly Cloudy
10:35 PM 34.9 °F 30.8 °F 29.7 °F 81% 30.17 in 10.0 mi WSW 4.6 mph - N/A   Scattered Clouds
10:55 PM 38.3 °F 35.9 °F 30.0 °F 72% 30.17 in 10.0 mi North 3.5 mph - N/A   Scattered Clouds
11:15 PM 38.5 °F 34.1 °F 30.2 °F 72% 30.18 in 10.0 mi North 5.8 mph - N/A   Scattered Clouds
11:35 PM 37.8 °F 31.8 °F 30.2 °F 74% 30.19 in 10.0 mi North 8.1 mph - N/A   Mostly Cloudy
11:55 PM 38.3 °F 33.2 °F 30.9 °F 75% 30.20 in 10.0 mi NNE 6.9 mph - N/A   Overcast